OPS 4682 DEB, 38395

Orbit data source: Space-Track

OPS 4682 DEB, 38395 is space debris in LEO originally from a launch on Sat, 03 Apr 1965 UTC launched from the Air Force Western Test Range (AFWTR). Debris objects in space refer to the collection of defunct objects orbiting the Earth. Examples of debris include non-operational satellites, rocket bodies, and fragments generated from explosions, collisions, or faulty payload assembly.

Loading next visibility...
Identifier
38395, 1965-027CY
Orbit
LEO
Country
Flag of USUS
Related business
Manufacturer
Unknown
Mission
Spacecraft
Bus & Motor
Unknown
Mass
Unknown
Launch date (UTC)
1965-04-03 (61 years ago)
Launch vehicle
Unknown
Launch site
Air Force Western Test Range (AFWTR)
Object type
Payload
Rocket body
Debris
Shape & HBR
Unknown shape, 0.1 m
Radar Cross Section
Medium (>0.1 m² and <1 m²)

Expand to show TLE details & history
Last TLE update: 6 days ago

TLE from 6 days ago
0 OPS 4682 DEB
1 38395U 65027CY  26229.65120165  .00000454  00000-0  15139-2 0  9999
2 38395  90.2625  19.7835 0030882 170.2145 189.9585 12.98510701102965
Epoch: 2026-08-17T15:37Z
TLE epoch observation values (Epoch: 2026-08-17T15:37:43.822Z)
Latitude
0.00005°
Longitude
179.32059°
Altitude
1,294.072 km
Speed
7.198 km/s
True Right ascension
01h 19m 08s
True Declination
0° 00' 00"
Sunlit
Object was in full shadow at epoch
Visualization orbit readout
Latitude
Unknown
Longitude
Unknown
Altitude
Unknown
Speed
Unknown
Apparent Right ascension
Unknown
Apparent Declination
Unknown
Sunlit
N/A
Visualization observer readout
Local Sidereal Time
15:55:36
Azimuth
Unknown
Elevation
Unknown
Doppler factor
Unknown
Orbital elements
Apogee altitude
1,288.66 km
Perigee altitude
1,241.453 km
Semi-major axis
7,643.194 km
Eccentricity
0.00309
Inclination
90.2625°
RAAN
19.7835°
Arg. of periapsis
170.2145°
True anomaly
189.89753°
Mean anomaly
189.9585°
Eccentric anomaly
189.92799°
Mean motion
3.24811 °/min
Orbital period
110.83 mins
BSTAR
0.0015139
Loading maneuver chart data...
Computing Atmospheric mass density...
Loading historical data...
Loading historical data...
Loading historical data...
Loading historical data...
Loading historical data...
Loading historical data...
Loading historical data...

Documentation

Showing up to 5 results
|